Location: Prague
(50.0830°N, 14.4670°E)
Time: 12:02:07
(UTC+01:00)

AAUSAT CUBESAT 2 - Visible Passes

Search period start: 01 December 2021 00:00
Search period end: 11 December 2021 00:00
Orbit: 570 x 588 km, 97.5° (Epoch: 30 November)

Date Brightness Start Highest point End Pass type
(mag) Time Alt. Az. Time Alt. Az. Time Alt. Az.
01 Dec ? 04:39:37 10° NNE 04:43:17 31° E 04:46:56 10° SSE visible
01 Dec ? 06:15:01 10° N 06:18:35 29° WNW 06:22:09 10° SW visible
01 Dec ? 17:08:42 10° SSW 17:12:05 25° W 17:15:29 10° NW visible
02 Dec ? 04:44:16 10° NNE 04:48:02 34° E 04:51:46 10° SSE visible
02 Dec ? 06:19:48 10° N 06:23:16 27° WNW 06:26:43 10° WSW visible
02 Dec ? 17:13:35 10° SW 17:16:50 23° W 17:20:06 10° NW visible
03 Dec ? 04:48:55 10° NNE 04:52:46 38° E 04:56:36 10° SSE visible
03 Dec ? 06:24:36 10° N 06:27:57 24° WNW 06:31:16 10° WSW visible
03 Dec ? 17:18:31 10° SW 17:21:35 20° W 17:24:40 10° NW visible
04 Dec ? 04:53:34 10° NNE 04:57:30 43° E 05:01:25 10° S visible
04 Dec ? 06:29:24 10° NNW 06:32:36 22° WNW 06:35:48 10° WSW visible
04 Dec ? 17:23:28 10° SW 17:26:20 18° W 17:29:13 10° NW visible
05 Dec ? 04:58:14 10° NNE 05:02:13 48° E 05:06:12 10° S visible
05 Dec ? 06:34:13 10° NNW 06:37:16 20° WNW 06:40:18 10° WSW visible
05 Dec ? 17:28:28 10° SW 17:31:05 17° W 17:33:45 10° NW visible
06 Dec ? 05:02:54 10° NNE 05:06:56 54° E 05:10:58 10° S visible
06 Dec ? 06:39:03 10° NNW 06:41:55 19° WNW 06:44:48 10° WSW visible
06 Dec ? 17:33:29 10° SW 17:35:51 15° W 17:38:12 10° NW visible
07 Dec ? 05:07:34 10° NNE 05:11:39 61° E 05:15:43 10° S visible
07 Dec ? 06:43:53 10° NNW 06:46:34 17° WNW 06:49:15 10° WSW visible
07 Dec ? 17:38:34 10° WSW 17:40:35 13° W 17:42:38 10° WNW visible
08 Dec ? 05:12:14 10° NNE 05:16:22 68° ESE 05:20:27 10° S visible
08 Dec ? 06:48:45 10° NNW 06:51:13 16° WNW 06:53:41 10° W visible
08 Dec ? 17:43:44 10° WSW 17:45:21 12° W 17:46:57 10° WNW visible
09 Dec ? 05:16:55 10° NNE 05:21:03 76° ESE 05:25:10 10° S visible
09 Dec ? 06:53:38 10° NNW 06:55:51 14° WNW 06:58:04 10° W visible
09 Dec ? 17:49:08 10° W 17:50:06 11° W 17:51:03 10° WNW visible
10 Dec ? 05:21:36 10° NNE 05:25:44 85° ESE 05:29:52 10° SSW visible
10 Dec ? 06:58:33 10° NNW 07:00:28 13° WNW 07:02:24 10° W visible
